Flag for U.S.A. Weather past 2 weeks in Redmond, Washington, U.S.A.

Now
65 °F

Passing clouds.


Feels Like: 65 °F
Forecast: 56 / 79 °F
Wind: No wind

Location: Seattle Boeing Field

Current Time: Jul 28, 2015 at 1:35:51 AM

Latest Report: Jul 28, 2015 at 12:53 AM


Visibility: 10 mi

Pressure: 30.24 "Hg

Humidity: 63%

Dew point: 52 °F

Location of RedmondLocation

Historic Weather in Redmond — Graph

°F

Redmond temperature yesterday

Maximum temperature yesterday: 76 °F (at 3:53 PM)
Minimum temperature yesterday: 56 °F (at 5:53 AM)
Average temperature yesterday: 66 °F

Past Weeks' High & Low Weather Summary

 TemperatureHumidityPressure
High97 °F (Jul 19, 3:53 PM)85% (Jul 25, 12:53 AM)30.23 "Hg (Jul 25, 12:53 AM)
Low56 °F (Jul 27, 5:53 AM)17% (Jul 18, 4:53 PM)29.85 "Hg (Jul 22, 5:53 PM)
Average70 °F53%30.03 "Hg
* Reported Jul 12 11:53 PM — Jul 27 11:53 PM, Redmond, Weather by CustomWeather, © 2015

Note: Actual official high and low records may vary slightly from our data, if they occured in-between our weather recording intervals... More about our weather records

Advertising

Redmond weather history for previous 24 hours

 ConditionsComfort  
Time TempWeatherWind HumidityBarometerVisibility
11:53 PM
Mon, Jul 27
67 °FPassing clouds.No wind59%30.23 "Hg10 mi
10:53 PM70 °FPassing clouds.No wind51%30.22 "Hg10 mi
9:53 PM71 °FPassing clouds.No wind47%30.22 "Hg10 mi
8:53 PM72 °FOvercast.No wind46%30.20 "Hg10 mi
7:53 PM72 °FPartly sunny.No wind44%30.20 "Hg10 mi
6:53 PM74 °FPartly sunny.No wind38%30.19 "Hg10 mi
5:53 PM75 °FPartly sunny.No wind34%30.19 "Hg10 mi
4:53 PM75 °FPartly sunny.6 mph37%30.20 "Hg10 mi
3:53 PM76 °FScattered clouds.7 mph36%30.20 "Hg10 mi
2:53 PM74 °FScattered clouds.No wind41%30.20 "Hg10 mi
1:53 PM72 °FScattered clouds.6 mph48%30.20 "Hg10 mi
12:53 PM67 °FBroken clouds.5 mph59%30.21 "Hg10 mi
11:53 AM67 °FBroken clouds.No wind57%30.20 "Hg10 mi
10:53 AM65 °FBroken clouds.3 mph63%30.20 "Hg10 mi
9:53 AM63 °FPartly sunny.5 mph73%30.19 "Hg10 mi
9:02 AM61 °FBroken clouds.3 mph77%30.19 "Hg10 mi
7:53 AM60 °FLow clouds.5 mph80%30.17 "Hg6 mi
6:53 AM58 °FMostly cloudy.5 mph84%30.16 "Hg10 mi
5:53 AM56 °FPartly cloudy.6 mph81%30.15 "Hg10 mi
4:53 AM59 °FPassing clouds.3 mph78%30.14 "Hg10 mi
3:53 AM58 °FPassing clouds.3 mph81%30.12 "Hg10 mi
2:53 AM58 °FPassing clouds.3 mph84%30.11 "Hg10 mi
1:53 AM60 °FPassing clouds.No wind80%30.11 "Hg10 mi
Weather by CustomWeather, © 2015

See weather overviewHow to use our weather pages